Location: Cruquius
(52.3348°N, 4.6319°E)
Time: 11:21:46
(UTC+00:00)

NOSS 3-3 (C) - Pass Details

Date: 06 October 2021
Orbit: 801 x 1411 km, 63.4° (Epoch: 05 October)

Event Time Altitude Azimuth Distance (km) Brightness Sun altitude
Rises 19:09:53 0° 310° (NW) 4,034 8.4 -19.5°
Reaches altitude 10° 19:13:09 10° 296° (WNW) 3,168 7.9 -19.9°
Maximum altitude 19:18:45 22° 250° (WSW) 2,490 6.7 -20.7°
Drops below altitude 10° 19:24:47 10° 203° (SSW) 3,421 6.9 -21.6°
Sets 19:28:30 0° 190° (S) 4,439 7.3 -22.1°
